Location: Palomar Mountain Lodge
(33.3110°N, 116.8495°W)
Time: 00:38:28
(UTC-08:00)

Daily predictions for brighter satellites

Satellite Brightness Start Highest point End
(mag) Time Altitude Azimuth Time Altitude Azimuth Time Altitude Azimuth
USA 238 DEB 4.3 03:44:48 45° NNE 03:44:48 45° NNE 03:49:25 10° NNE
USA 238 4.3 03:44:52 46° NNE 03:44:52 46° NNE 03:49:32 10° NNE
OAO 2 Rocket 3.8 04:13:05 55° ENE 04:13:05 55° ENE 04:17:05 10° E
Cosmos 1844 Rocket 4.5 04:09:18 10° N 04:14:05 29° ENE 04:18:51 10° ESE
Cosmos 540 Rocket 4.3 04:13:12 18° N 04:16:48 48° ENE 04:21:45 10° SE
Cosmos 1655 Rocket 4.4 04:10:48 10° S 04:17:04 63° E 04:23:22 10° NNE
Cosmos 1814 Rocket 4.2 04:19:26 59° SSE 04:19:26 59° SSE 04:23:36 10° SSE
Cosmos 1486 Rocket 4.2 04:22:38 58° N 04:22:38 58° N 04:26:52 10° NNE
NOSS 3-2 (C) 3.1 04:23:54 72° WSW 04:24:28 81° WNW 04:30:46 10° NNE
Cosmos 1869 4.2 04:23:57 39° SE 04:24:52 47° E 04:28:44 10° NNE
ATLAS 3B R/B 2.5 04:23:40 56° SW 04:25:11 75° WNW 04:31:59 10° NNE
Cosmos 2322 3.5 04:27:19 72° W 04:27:29 73° WNW 04:33:12 10° NNE
COSMOS 2428 3.1 04:25:56 11° S 04:31:25 64° ESE 04:37:01 10° NNE
Cosmos 968 Rocket 4.4 04:28:46 10° S 04:33:41 48° ESE 04:38:34 10° NNE
Cosmos 1428 Rocket 4.4 04:33:51 46° SW 04:35:25 60° W 04:41:27 10° N
Okean O Rocket 1.8 04:33:53 10° NNE 04:38:19 70° ESE 04:42:42 10° S
Cosmos 2360 Rocket 3.2 04:40:06 30° NNW 04:40:06 30° NNW 04:43:38 10° N
Meteor 1-27 4.2 04:39:25 53° WNW 04:39:25 53° WNW 04:44:40 10° N
COSMOS 2441 4.3 04:39:23 10° N 04:44:15 67° WNW 04:46:25 33° SSW
Timation 1 Rocket 4.2 04:42:44 20° NNW 04:46:57 73° WSW 04:52:53 10° SSE
MOS 1-B 4.4 04:41:22 10° N 04:47:01 55° WNW 04:50:19 25° SW
CZ-4B R/B 3.2 04:41:45 10° NNE 04:47:03 76° ESE 04:52:24 10° S
Cosmos 1666 Rocket 3.5 04:45:23 10° N 04:49:51 88° W 04:54:18 10° S
MSX 3.8 04:46:33 10° N 04:52:07 55° WNW 04:57:42 10° SSW
Meteor 2-10 Rocket 3.8 04:54:03 42° W 04:54:20 42° W 04:59:12 10° N
CZ-4C R/B 3.0 04:48:57 10° NNW 04:56:33 86° WSW 05:04:52 10° SSE
NOSS 3-2 (A) 4.1 04:56:13 30° WNW 04:56:43 31° NW 05:02:17 10° NNE
Cosmos 841 Rocket 3.8 04:57:19 39° W 04:58:01 41° WSW 05:02:51 10° S
GPS 2-04 Rocket1 3.2 04:58:13 35° SW 04:59:35 53° SSE 05:03:29 10° E
CENTAUR R/B 2.3 05:01:01 15° SW 05:05:53 72° WNW 05:12:29 10° NNE
Cosmos 1515 Rocket 3.6 05:02:17 10° S 05:06:38 79° E 05:11:03 10° N
Cosmos 2333 Rocket 2.1 05:01:30 10° SSW 05:07:09 78° WNW 05:12:50 10° NNE
Cosmos 2219 Rocket 2.0 05:01:48 10° SSW 05:07:21 72° WNW 05:12:56 10° NNE
PAYLOAD B 4.3 05:04:21 10° N 05:09:40 50° WNW 05:14:55 10° SW
Sich 1 3.4 05:07:41 23° NW 05:09:46 37° W 05:13:44 10° SSW
ALOS 4.3 05:11:01 10° NE 05:15:08 31° E 05:19:14 10° SSE
IDEFIX/ARIANE 42P 4.2 05:14:12 10° NNW 05:16:14 16° NW 05:16:14 16° NW
Cosmos 1151 Rocket 3.0 05:15:12 10° SSW 05:19:23 56° W 05:23:35 10° N
COSMO-SKYMED 1 2.4 05:15:46 10° S 05:20:04 72° W 05:24:24 10° NNW
Cosmos 1844 3.8 05:14:22 10° NNW 05:20:11 86° ENE 05:25:56 10° SSE
CZ-2C R/B 3.2 05:15:54 10° N 05:20:30 33° WNW 05:25:05 10° SW
Cosmos 2266 Rocket 3.9 05:16:27 10° SSW 05:22:29 64° W 05:28:41 10° N
IRS-1C Rocket 4.1 05:18:24 10° NNE 05:23:42 89° WNW 05:28:58 10° SSW
GPS 2-05 Rocket1 2.7 05:23:45 30° WNW 05:25:02 59° N 05:28:10 10° ENE
Cosmos 2228 Rocket 3.0 05:23:57 10° SSW 05:28:26 73° W 05:32:53 10° N
Okean-O 4.0 05:24:16 10° NNE 05:28:29 43° E 05:32:41 10° S
Cosmos 836 Rocket 4.4 05:24:57 10° NNW 05:30:06 64° WSW 05:35:13 10° S
Cosmos 883 Rocket 4.5 05:27:48 10° N 05:34:05 81° W 05:40:24 10° S
Cosmos 1633 Rocket 3.8 05:30:18 10° NNW 05:34:06 30° W 05:37:52 10° SSW
SL-4 R/B 2.1 05:36:52 16° WSW 05:39:13 39° NW 05:42:26 10° NNE
BREEZE-M DEB (TANK) 1.4 05:46:18 10° SW 05:48:48 88° NNW 05:50:51 10° NE
Cosmos 2292 Rocket 2.8 05:47:29 10° S 05:50:28 88° E 05:53:57 10° N
Cosmos 1633 2.9 05:46:56 10° N 05:50:28 67° E 05:53:58 10° SSE
Meteor 2-13 Rocket 4.4 05:47:09 10° S 05:53:14 77° W 05:59:19 10° N
Cosmos 1484 Rocket 3.6 05:50:28 10° NNW 05:53:38 26° WNW 05:56:45 10° SW
OAO 3 Rocket 3.2 05:49:43 10° WSW 05:54:22 81° SSE 05:59:02 10° ENE
OAO 2 Rocket 3.3 05:52:02 10° WNW 05:57:00 80° SSW 06:01:55 10° ESE
Cosmos 1844 Rocket 3.4 05:53:02 10° NW 05:57:53 31° WSW 06:02:42 10° SSW
Cosmos 2278 Rocket 2.8 05:52:26 10° NNW 05:58:02 60° ENE 06:03:37 10° SSE
Cosmos 2237 Rocket 2.2 05:53:12 10° SSW 05:58:46 62° WNW 06:04:24 10° NNE
USA 215 3.7 05:54:55 10° SE 06:01:23 66° NE 06:07:51 10° NW
Feng Yun 1-1 Rocket 4.2 05:56:53 10° N 06:02:10 59° WNW 06:07:26 10° SSW
